Regional Weather Roundup
Issued by NWS Little Rock, AR

Home | Current Version | Previous Version | Text Only | Print | Product List | Glossary On
Versions: 1 2 3 4 5 6 7 8 9 10 11 12 13 14 15 16 17 18 19 20 21 22 23 24 25 26 27 28 29 30 31 32 33 34 35 36 37 38 39 40 41 42 43 44 45 46 47 48 49 50
000
ASUS44 KLZK 201905
RWRLZK

WEATHER ROUNDUP FOR ARKANSAS
NATIONAL WEATHER SERVICE LITTLE ROCK AR
200 PM CDT WED AUG 20 2014

NOTE: "FAIR" INDICATES FEW OR NO CLOUDS BELOW 12,000 FEET WITH NO
SIGNIFICANT WEATHER AND/OR OBSTRUCTIONS TO VISIBILITY.

ARZ001-003-010-029-202000-
NORTHWEST ARKANSAS

CITY           SKY/WX    TMP DP  RH WIND       PRES   REMARKS
FAYETTEVILLE   MOSUNNY   89  66  46 SW12      30.01F HX  91
FORT SMITH     SUNNY     92  66  42 W13       29.99S HX  94
HARRISON       MOSUNNY   89  71  55 S12G18    30.03S HX  95
BENTONVILLE    MOSUNNY   90  64  43 SW13G20   30.02S HX  91
ROGERS         MOSUNNY   91  65  41 S15G22    30.02S HX  93
SILOAM SPGS    MOSUNNY   88  64  45 SW13G21   30.01F HX  89
HIGHFILL       MOSUNNY   89  63  41 S15G23    30.01S HX  90
SPRINGDALE     MOSUNNY   90  64  43 SW12G23   30.03F HX  91
$$

ARZ004-005-016-202000-
NORTH CENTRAL ARKANSAS

CITY           SKY/WX    TMP DP  RH WIND       PRES   REMARKS
BATESVILLE     SUNNY     97  70  41 W12       29.99S HX 103
FLIPPIN          N/A     93  66  40 S9        30.00S HX  96
MTN HOME       SUNNY     95  65  37 S9        30.00S HX  97
$$

ARZ040-041-202000-
WEST CENTRAL ARKANSAS

CITY           SKY/WX    TMP DP  RH WIND       PRES   REMARKS
MENA           SUNNY     90  72  55 SW5       30.04S HX  96
MOUNT IDA      SUNNY     88  70  55 VRB6      30.02S HX  93
$$

ARZ009-017-025-026-028-202000-
NORTHEAST ARKANSAS

CITY           SKY/WX    TMP DP  RH WIND       PRES   REMARKS
CORNING        LGT RAIN  95  70  43 S10       29.99S HX 101
JONESBORO      SUNNY     94  73  50 S14       30.00S HX 103
NEWPORT        MOSUNNY   96  74  49 S13       30.00F HX 106
WALNUT RIDGE   SUNNY     93  72  49 S13       29.97F HX 100
BLYTHEVILLE    SUNNY     92  77  61 SW8       30.01S HX 105
$$

ARZ022-023-033-042-044-202000-
CENTRAL ARKANSAS

CITY           SKY/WX    TMP DP  RH WIND       PRES   REMARKS
LITTLE ROCK    SUNNY     92  68  45 SW14      30.02S HX  96
N LITTLE ROCK  SUNNY     91  70  50 W8        30.02S HX  96
JACKSONVILLE   SUNNY     93  69  45 SW10      30.02S HX  98
SEARCY           N/A     93  75  55 CALM        N/A  HX 104
HOT SPRINGS    SUNNY     90  70  51 SW7       30.04S HX  95
RUSSELLVILLE   SUNNY     92  73  53 VRB5      30.00F HX 100
CLINTON        FAIR      95  72  46 SW9       30.00S HAZE    HX 103
$$

ARZ036-202000-
EAST ARKANSAS

CITY           SKY/WX    TMP DP  RH WIND       PRES   REMARKS
WEST MEMPHIS   SUNNY     92  74  55 VRB6      30.02R HX 101
$$

ARZ050-053-066-070-073-202000-
SOUTHWEST ARKANSAS

CITY           SKY/WX    TMP DP  RH WIND       PRES   REMARKS
ARKADELPHIA    FAIR      92  76  59 S7        30.03F HX 104
CAMDEN         PTSUNNY   91  72  52 S3        30.02F HX  98
TEXARKANA      SUNNY     90  71  53 S8        30.02F HX  96
EL DORADO      MOSUNNY   90  74  59 S5        30.04F HX  99
DE QUEEN       MOSUNNY   88  73  61 S5        30.00F HX  95
$$

ARZ056-057-069-202000-
SOUTHEAST ARKANSAS

CITY           SKY/WX    TMP DP  RH WIND       PRES   REMARKS
PINE BLUFF     SUNNY     90  71  53 SW7       30.04S HX  96
STUTTGART      SUNNY     91  73  55 SW10      30.04F HX 100
MONTICELLO     MOSUNNY   90  73  57 VRB6      30.04F HX  98

$$




USA.gov is the U.S. government's official web portal to all federal, state and local government web resources and services.